{"data":{"norad_id":62199,"intl_designator":"2024-229H","name":"STARLINK-32653","alt_names":[],"object_type":"PAYLOAD","status":"ACTIVE","operator":null,"country":"US","launch_date":"2024-12-04","launch_site_code":"AFETR","launch_vehicle":null,"mission":null,"orbit_class":"UNKNOWN","rcs_meters":null,"size_class":null,"mass_kg":null,"dimensions":null,"purposes":["comms"],"wikipedia_slug":null,"has_3d_model":false,"image_url":null,"decayed_at":null,"tle_current":{"epoch":"2026-05-25T03:33:23.338656Z","epoch_age_seconds":66216,"freshness":"FRESH","line1":"1 62199U 24229H   26145.14818679  .00012308  00000+0  45601-3 0  9990","line2":"2 62199  42.9988 192.0399 0001290 273.8227  86.2477 15.27582729 82333","mean_motion":15.27582729,"eccentricity":0.000129,"inclination_deg":42.9988,"raan_deg":192.0399,"arg_perigee_deg":273.8227,"mean_anomaly_deg":86.2477,"bstar":0.00045601,"rev_number":8233,"period_min":94.266580307743,"perigee_km":482.15583249181,"apogee_km":483.92601639632,"semimajor_km":6861.1779244441,"source":"CELESTRAK","updated_at":"2026-05-25T13:38:19.607252Z"}}}